Weather History for KBCB - May, 2013

Change the Weather History Date:

Wednesday, May 8, 2013

  Actual Average Record
Temperature  
Mean Temperature 50 °F 57 °F  
Max Temperature 57 °F 70 °F 85 °F (1969)
Min Temperature 43 °F 45 °F 30 °F (1974)
Degree Days  
Heating Degree Days 15 8  
Month to date heating degree days 100 72  
Since 1 July heating degree days 5241 5277  
Cooling Degree Days 0 0  
Month to date cooling degree days 0 0  
Year to date cooling degree days 0 3  
Growing Degree Days 2 (Base 50)    
Moisture  
Dew Point 51 °F    
Average Humidity 97    
Maximum Humidity 100    
Minimum Humidity 93    
Precipitation  
Precipitation 0.90 in 0.12 in 1.95 in (1960)
Month to date precipitation 3.07 0.98  
Year to date precipitation 19.11 13.99  
Snow  
Snow 0.00 in - - ()
Month to date snowfall 0.0  
Since 1 July snowfall 27.9  
Snow Depth 0.00 in    
Sea Level Pressure  
Sea Level Pressure 30.00 in    
Wind  
Wind Speed 2 mph (East)    
Max Wind Speed 7 mph    
Max Gust Speed -    
Visibility 6 miles    
Events Fog , Rain    
T = Trace of Precipitation, MM = Missing Value Source: NWS Daily Summary

Daily Weather History Graph

Daily Weather History Graph

Search for Another Location

Airport or City:

Trip Planner

Search our weather history database for the weather conditions in past years. The results will help you decide how hot, cold, wet, or windy it might be!

Date:

Astronomy

May. 08, 2013 Rise Set
Actual Time 6:19 AM EDT 8:17 PM EDT
Civil Twilight 5:50 AM EDT 8:46 PM EDT
Nautical Twilight 5:16 AM EDT 9:20 PM EDT
Astronomical Twilight 4:38 AM EDT 9:58 PM EDT
Moon 5:24 AM EDT (5/8) 7:15 PM EDT (5/8)
Length of Visible Light 14h 55m
Length of Day
13h 58m
Waning Crescent, 2% of the Moon is Illuminated
May 8
Waning Crescent
May 9
New
May 18
First Quarter
May 25
Full
May 31
Last Quarter

Hourly Weather History & Observations

Time (EDT) Temp. Windchill Dew Point Humidity Pressure Visibility Wind Dir Wind Speed Gust Speed Precip Events Conditions
12:15 AM 46.4 °F - 46.4 °F 100% 29.97 in 0.8 mi Calm Calm - N/A   Overcast
12:35 AM 46.4 °F - 46.4 °F 100% 29.97 in 0.2 mi Calm Calm - N/A Fog Fog
12:55 AM 48.2 °F - 48.2 °F 100% 29.97 in 0.2 mi Calm Calm - N/A Fog Fog
1:15 AM 46.4 °F - 46.4 °F 100% 29.97 in 0.2 mi Calm Calm - N/A Fog Fog
1:35 AM 46.4 °F 45.2 °F 46.4 °F 100% 29.97 in 0.2 mi East 3.5 mph - N/A Fog Fog
1:55 AM 46.4 °F - 46.4 °F 100% 29.97 in 0.8 mi Calm Calm - N/A   Overcast
2:15 AM 46.4 °F - 46.4 °F 100% 29.96 in 1.5 mi Calm Calm - N/A   Overcast
2:35 AM 46.4 °F - 46.4 °F 100% 29.96 in 2.0 mi Calm Calm - N/A   Overcast
2:55 AM 48.2 °F - 48.2 °F 100% 29.96 in 3.0 mi Calm Calm - N/A   Overcast
3:15 AM 48.2 °F - 48.2 °F 100% 29.95 in 1.8 mi Calm Calm - N/A   Overcast
3:35 AM 48.2 °F - 48.2 °F 100% 29.95 in 2.0 mi Calm Calm - N/A   Overcast
3:55 AM 48.2 °F - 48.2 °F 100% 29.95 in 1.0 mi ESE 3.5 mph - N/A   Overcast
4:15 AM 48.2 °F - 48.2 °F 100% 29.95 in 0.5 mi Calm Calm - N/A Fog Fog
4:35 AM 48.2 °F - 48.2 °F 100% 29.95 in 1.0 mi Calm Calm - N/A   Overcast
4:55 AM 48.2 °F - 48.2 °F 100% 29.96 in 0.5 mi Calm Calm - N/A Fog Fog
5:15 AM 48.2 °F - 48.2 °F 100% 29.97 in 1.0 mi Calm Calm - N/A   Overcast
5:35 AM 48.2 °F - 48.2 °F 100% 29.96 in 7.0 mi Calm Calm - N/A   Light Drizzle
5:55 AM 48.2 °F - 48.2 °F 100% 29.96 in 7.0 mi Calm Calm - N/A Rain Rain
6:15 AM 48.2 °F - 48.2 °F 100% 29.97 in 7.0 mi Calm Calm - N/A   Drizzle
6:35 AM 48.2 °F - 48.2 °F 100% 29.97 in 7.0 mi Calm Calm - N/A   Drizzle
6:55 AM 48.2 °F - 48.2 °F 100% 29.97 in 5.0 mi ESE 4.6 mph - 0.01 in Rain Light Rain
7:15 AM 48.2 °F - 48.2 °F 100% 29.97 in 0.5 mi SE 4.6 mph - N/A Rain Light Rain
7:35 AM 48.2 °F - 48.2 °F 100% 29.99 in 0.2 mi Calm Calm - 0.01 in Rain Rain
7:55 AM 48.2 °F - 48.2 °F 100% 29.99 in 0.2 mi Calm Calm - 0.02 in Rain Light Rain
8:15 AM 50.0 °F - 50.0 °F 100% 29.99 in 5.0 mi East 3.5 mph - 0.02 in Rain Rain
8:35 AM 50.0 °F - 50.0 °F 100% 30.00 in 5.0 mi Calm Calm - 0.06 in Rain Rain
8:55 AM 50.0 °F - 50.0 °F 100% 30.01 in 5.0 mi Calm Calm - 0.10 in Rain Rain
9:15 AM 50.0 °F - 50.0 °F 100% 30.01 in 7.0 mi East 3.5 mph - 0.06 in Rain Rain
9:35 AM 51.8 °F - 51.8 °F 100% 30.01 in 7.0 mi Calm Calm - 0.11 in Rain Rain
9:55 AM 51.8 °F - 51.8 °F 100% 30.01 in 10.0 mi East 4.6 mph - 0.16 in Rain Rain
10:15 AM 51.8 °F - 51.8 °F 100% 30.01 in 10.0 mi East 3.5 mph - 0.05 in Rain Rain
10:35 AM 51.8 °F - 51.8 °F 100% 30.01 in 10.0 mi East 4.6 mph - 0.11 in Rain Rain
10:55 AM 51.8 °F - 51.8 °F 100% 30.01 in 10.0 mi ESE 6.9 mph - 0.16 in Rain Rain
11:15 AM 51.8 °F - 51.8 °F 100% 30.01 in 7.0 mi East 6.9 mph - 0.07 in Rain Heavy Rain
11:35 AM 51.8 °F - 51.8 °F 100% 30.01 in 10.0 mi East 5.8 mph - 0.11 in Rain Heavy Rain
11:55 AM 51.8 °F - 51.8 °F 100% 30.00 in 7.0 mi East 5.8 mph - 0.14 in Rain Rain
12:15 PM 51.8 °F - 51.8 °F 100% 30.00 in 5.0 mi ENE 4.6 mph - 0.06 in Rain Rain
12:35 PM 51.8 °F - 51.8 °F 100% 30.00 in 3.0 mi East 3.5 mph - 0.14 in Rain Heavy Rain
12:55 PM 51.8 °F - 51.8 °F 100% 30.00 in 4.0 mi NE 3.5 mph - 0.18 in Rain Rain
1:15 PM 53.6 °F - 53.6 °F 100% 29.99 in 5.0 mi ENE 4.6 mph - 0.05 in Rain Rain
1:35 PM 53.6 °F - 53.6 °F 100% 29.99 in 3.0 mi NE 4.6 mph - 0.08 in Rain Heavy Rain
1:55 PM 53.6 °F - 53.6 °F 100% 30.00 in 3.0 mi NE 6.9 mph - 0.11 in   Heavy Drizzle
2:15 PM 53.6 °F - 53.6 °F 100% 30.00 in 3.0 mi ENE 5.8 mph - 0.01 in   Heavy Drizzle
2:35 PM 53.6 °F - 53.6 °F 100% 30.00 in 7.0 mi ENE 5.8 mph - 0.01 in   Light Drizzle
2:55 PM 53.6 °F - 53.6 °F 100% 30.00 in 7.0 mi ENE 3.5 mph - 0.01 in   Overcast
3:15 PM 55.4 °F - 55.4 °F 100% 30.00 in 10.0 mi NE 3.5 mph - N/A   Overcast
3:35 PM 55.4 °F - 55.4 °F 100% 30.00 in 10.0 mi Calm Calm - N/A   Overcast
3:55 PM 55.4 °F - 55.4 °F 100% 30.00 in 10.0 mi Calm Calm - N/A   Overcast
4:35 PM 57.2 °F - 55.4 °F 94% 30.01 in 10.0 mi Calm Calm - N/A   Overcast
4:55 PM 57.2 °F - 55.4 °F 94% 30.01 in 10.0 mi WSW 4.6 mph - N/A   Overcast
5:15 PM 57.2 °F - 55.4 °F 94% 30.01 in 10.0 mi WSW 3.5 mph - N/A   Overcast
5:35 PM 57.2 °F - 55.4 °F 94% 30.01 in 10.0 mi Calm Calm - N/A   Mostly Cloudy
5:55 PM 57.2 °F - 55.4 °F 94% 30.00 in 10.0 mi Calm Calm - N/A   Scattered Clouds
6:15 PM 57.2 °F - 55.4 °F 94% 30.00 in 10.0 mi Calm Calm - N/A   Scattered Clouds
6:35 PM 59.0 °F - 55.4 °F 88% 30.00 in 10.0 mi Calm Calm - N/A   Clear
6:55 PM 57.2 °F - 55.4 °F 94% 30.01 in 10.0 mi Calm Calm - N/A   Scattered Clouds
7:15 PM 59.0 °F - 55.4 °F 88% 30.01 in 10.0 mi Calm Calm - N/A   Mostly Cloudy
7:35 PM 57.2 °F - 55.4 °F 94% 30.02 in 10.0 mi Calm Calm - N/A   Scattered Clouds
7:55 PM 57.2 °F - 55.4 °F 94% 30.02 in 10.0 mi Calm Calm - N/A   Scattered Clouds
8:15 PM 55.4 °F - 55.4 °F 100% 30.03 in 10.0 mi Calm Calm - N/A   Scattered Clouds
8:35 PM 55.4 °F - 55.4 °F 100% 30.03 in 10.0 mi SSW 3.5 mph - N/A   Clear
8:55 PM 53.6 °F - 53.6 °F 100% 30.04 in 10.0 mi Calm Calm - N/A   Scattered Clouds
9:15 PM 53.6 °F - 53.6 °F 100% 30.04 in 10.0 mi Calm Calm - N/A   Clear
9:35 PM 51.8 °F - 51.8 °F 100% 30.04 in 7.0 mi Calm Calm - N/A   Clear
9:55 PM 51.8 °F - 51.8 °F 100% 30.05 in 5.0 mi Calm Calm - N/A   Clear
10:15 PM 51.8 °F - 51.8 °F 100% 30.05 in 7.0 mi Calm Calm - N/A   Clear
10:35 PM 51.8 °F - 51.8 °F 100% 30.06 in 7.0 mi Calm Calm - N/A   Clear
11:15 PM 48.2 °F - 48.2 °F 100% 30.06 in 0.5 mi Calm Calm - N/A Fog Fog
11:35 PM 48.2 °F - 48.2 °F 100% 30.06 in 1.8 mi Calm Calm - N/A   Mostly Cloudy
11:55 PM 51.8 °F - 51.8 °F 100% 30.06 in 4.0 mi West 3.5 mph - N/A   Scattered Clouds